FW0202 Weather Reports


time (UTC)temp
C
wind
direction
speed
KPH
gust
KPH
rain 1hr
cm
rain 24hr
cm
rain mn
cm
humidity
%
barometer
mb
20260505111308 20 169 8.0 8.0 0.00 0.00 0.00 93 998.8
20260505110802 20 167 8.0 9.7 0.00 0.00 0.00 93 998.6
20260505110302 20 168 6.4 9.7 0.00 0.00 0.00 92 998.8
20260505101737 19 173 6.4 8.0 0.00 0.00 0.00 91 998.6
20260505101230 19 168 8.0 8.0 0.00 0.00 0.00 91 998.8
20260505100724 19 173 6.4 9.7 0.00 0.00 0.00 91 998.5
20260505100210 19 174 8.0 9.7 0.00 0.00 0.00 91 998.4
20260505095646 19 177 6.4 8.0 0.00 0.00 0.00 91 998.4
20260505095143 19 179 6.4 8.0 0.00 0.00 0.00 91 998.4
20260505094842 19 177 6.4 8.0 0.00 0.00 0.00 91 998.2
20260505094114 19 180 8.0 8.0 0.00 0.00 0.00 91 998.3
20260505093843 20 180 6.4 9.7 0.00 0.00 0.00 90 998.2
20260505093104 20 177 6.4 9.7 0.00 0.00 0.00 90 998.1
20260505092600 20 163 6.4 9.7 0.00 0.00 0.00 90 997.9
20260505092047 20 173 8.0 8.0 0.00 0.00 0.00 90 998.0
20260505091543 20 176 6.4 8.0 0.00 0.00 0.00 90 998.0
20260505091052 20 173 6.4 8.0 0.00 0.00 0.00 90 998.0
20260505090528 20 172 8.0 8.0 0.00 0.00 0.00 90 997.7
20260505090029 20 161 6.4 8.0 0.00 0.00 0.00 90 997.7
20260505085750 20 168 6.4 8.0 0.00 0.00 0.00 90 997.6
20260505085229 20 167 6.4 8.0 0.00 0.00 0.00 90 997.8
20260505084500 20 175 8.0 9.7 0.00 0.00 0.00 89 997.8
20260505083954 20 180 6.4 9.7 0.00 0.00 0.00 89 997.6
20260505083439 20 156 6.4 9.7 0.00 0.00 0.00 89 997.3
20260505082916 20 174 6.4 9.7 0.00 0.00 0.00 89 997.2
20260505082630 20 170 6.4 9.7 0.00 0.00 0.00 88 997.2
20260505081907 20 162 8.0 9.7 0.00 0.00 0.00 89 997.1
20260505081403 20 164 8.0 9.7 0.00 0.00 0.00 88 997.3
20260505080857 20 162 6.4 9.7 0.00 0.00 0.00 88 997.0
20260505080356 21 166 6.4 11.3 0.00 0.00 0.00 87 996.8
20260505075831 21 166 6.4 11.3 0.00 0.00 0.00 87 996.9
20260505075550 21 189 6.4 9.7 0.00 0.00 0.00 87 996.8
20260505074812 21 178 4.8 8.0 0.00 0.00 0.00 86 996.5
20260505074307 21 158 6.4 9.7 0.00 0.00 0.00 86 996.5
20260505073753 21 156 6.4 9.7 0.00 0.00 0.00 85 996.4
20260505073249 21 184 4.8 9.7 0.00 0.00 0.00 85 996.3
20260505072744 21 180 6.4 9.7 0.00 0.00 0.00 85 996.3
20260505072240 22 171 6.4 9.7 0.00 0.00 0.00 84 996.4
20260505071736 22 188 4.8 9.7 0.00 0.00 0.00 84 996.2
20260505071656 22 169 6.4 9.7 0.00 0.00 0.00 84 996.1
20260505070706 22 173 8.0 8.0 0.00 0.00 0.00 83 995.8
20260505070154 22 169 6.4 8.0 0.00 0.00 0.00 82 996.0
20260505065649 22 181 8.0 8.0 0.00 0.00 0.00 82 995.8
20260505065134 22 177 6.4 8.0 0.00 0.00 0.00 80 995.7
20260505064630 23 177 6.4 8.0 0.00 0.00 0.00 78 995.8
20260505064116 23 176 8.0 9.7 0.00 0.00 0.00 77 995.9
20260505064053 23 182 6.4 9.7 0.00 0.00 0.00 76 995.8
20260505063333 23 179 6.4 9.7 0.00 0.00 0.00 76 995.8
20260505062603 23 176 6.4 8.0 0.00 0.00 0.00 75 995.7
20260505062048 24 182 6.4 9.7 0.00 0.00 0.00 73 995.7
20260505061546 24 188 8.0 9.7 0.00 0.00 0.00 76 995.6
20260505061031 24 178 8.0 9.7 0.00 0.00 0.00 74 995.6
20260505060527 24 179 8.0 9.7 0.00 0.00 0.00 73 995.5
20260505060012 24 174 6.4 9.7 0.00 0.00 0.00 75 995.5
20260505055508 24 184 6.4 9.7 0.00 0.00 0.00 72 995.5
20260505055003 24 175 6.4 9.7 0.00 0.00 0.00 72 995.4
20260505054710 25 185 6.4 9.7 0.00 0.00 0.00 69 995.2
20260505053945 25 177 8.0 9.7 0.00 0.00 0.00 71 995.4
20260505053440 25 172 6.4 9.7 0.00 0.00 0.00 71 995.3
20260505052916 25 174 8.0 9.7 0.00 0.00 0.00 71 995.2
20260505052411 25 173 6.4 9.7 0.00 0.00 0.00 72 995.2
20260505051908 25 179 6.4 9.7 0.00 0.00 0.00 72 995.1
20260505051354 25 177 6.4 9.7 0.00 0.00 0.00 70 995.0
20260505050849 25 178 6.4 9.7 0.00 0.00 0.00 72 995.1
20260505050602 25 182 8.0 9.7 0.00 0.00 0.00 69 995.4
20260505041751 26 170 6.4 9.7 0.00 0.00 0.00 65 995.1
20260505041728 26 174 8.0 9.7 0.00 0.00 0.00 69 995.3
20260505040748 26 174 6.4 9.7 0.00 0.00 0.00 69 995.1
20260505040245 26 174 8.0 9.7 0.00 0.00 0.00 71 995.2
20260505035742 25 180 6.4 9.7 0.00 0.00 0.00 70 995.3
20260505035453 26 179 6.4 9.7 0.00 0.00 0.00 68 995.1
20260505034713 26 176 8.0 9.7 0.00 0.00 0.00 69 995.0
20260505034209 26 176 6.4 9.7 0.00 0.00 0.00 64 995.1
20260505033916 26 181 6.4 12.9 0.00 0.00 0.00 65 995.1
20260505033150 26 177 6.4 12.9 0.00 0.00 0.00 69 995.2
20260505032645 27 190 8.0 11.3 0.00 0.00 0.00 68 995.0
20260505032141 27 202 9.7 11.3 0.00 0.00 0.00 63 995.2
20260505031848 27 190 8.0 11.3 0.00 0.00 0.00 65 995.4
20260505031123 27 180 6.4 9.7 0.00 0.00 0.00 67 995.4
20260505030619 27 182 6.4 11.3 0.00 0.00 0.00 68 995.3
20260505030119 27 180 6.4 11.3 0.00 0.00 0.00 66 995.6
20260505025619 26 165 9.7 11.3 0.00 0.00 0.00 69 995.6
20260505025118 27 189 4.8 11.3 0.00 0.00 0.00 68 995.5
20260505024619 26 201 6.4 11.3 0.00 0.00 0.00 68 995.7
20260505024117 26 186 6.4 11.3 0.00 0.00 0.00 71 995.8
20260505023613 25 200 8.0 14.5 0.00 0.00 0.00 75 995.5
20260505023110 26 191 4.8 14.5 0.00 0.00 0.00 72 995.8
20260505022605 27 205 12.9 14.5 0.00 0.00 0.00 68 996.1
20260505022102 26 187 6.4 16.1 0.00 0.00 0.00 71 996.0
20260505021557 26 195 8.0 16.1 0.00 0.00 0.00 72 996.2
20260505021053 26 205 9.7 11.3 0.00 0.00 0.00 72 996.2
20260505020548 25 179 6.4 9.7 0.00 0.00 0.00 75 996.1
20260505020259 25 166 6.4 9.7 0.00 0.00 0.00 75 996.3
20260505015746 25 181 6.4 11.3 0.00 0.00 0.00 75 996.3
20260505015016 25 183 6.4 11.3 0.00 0.00 0.00 76 996.4
20260505014744 25 175 6.4 9.7 0.00 0.00 0.00 78 996.5
20260505014008 25 195 8.0 9.7 0.00 0.00 0.00 74 996.4
20260505013453 25 191 8.0 9.7 0.00 0.00 0.00 75 996.9
20260505012949 25 196 8.0 9.7 0.00 0.00 0.00 73 997.0
20260505012446 24 171 6.4 9.7 0.00 0.00 0.00 78 997.0
20260505011932 25 195 6.4 9.7 0.00 0.00 0.00 75 997.2
20260505011416 24 177 6.4 11.3 0.00 0.00 0.00 78 997.2
20260505010915 25 181 8.0 11.3 0.00 0.00 0.00 75 997.1
20260505010416 25 188 6.4 9.7 0.00 0.00 0.00 73 997.4
20260505005915 25 205 9.7 9.7 0.00 0.00 0.00 74 997.3
20260505005619 25 178 6.4 11.3 0.00 0.00 0.00 74 997.3
20260505005115 24 186 6.4 11.3 0.00 0.00 0.00 75 997.4
20260505004353 24 169 6.4 9.7 0.00 0.00 0.00 78 997.4
20260505003848 23 180 6.4 9.7 0.00 0.00 0.00 79 997.3
20260505003343 24 167 6.4 9.7 0.00 0.00 0.00 78 997.4
20260505002820 24 164 8.0 9.7 0.00 0.00 0.00 78 997.5
20260505002316 24 171 4.8 9.7 0.00 0.00 0.00 78 997.5
20260505001812 23 175 6.4 9.7 0.00 0.00 0.00 79 997.7
20260505001258 23 176 6.4 9.7 0.00 0.00 0.00 79 997.8
20260505001238 23 185 6.4 9.7 0.00 0.00 0.00 79 997.8
20260505000249 23 183 8.0 9.7 0.00 0.00 0.00 81 998.0
20260504235734 23 168 8.0 12.9 0.00 0.00 0.00 79 997.8
20260504235231 23 176 8.0 14.5 0.00 0.00 0.00 77 997.7
20260504234726 24 184 9.7 14.5 0.00 0.00 0.00 76 998.0
20260504234221 24 172 4.8 11.3 0.00 0.00 0.00 76 997.9
20260504233719 23 191 6.4 8.0 0.00 0.00 0.00 81 997.8
20260504233213 23 170 6.4 9.7 0.00 0.00 0.00 80 997.9
20260504232709 22 177 6.4 9.7 0.00 0.00 0.00 82 997.9
20260504232426 22 185 6.4 11.3 0.00 0.00 0.00 82 998.0
20260504231652 21 184 6.4 11.3 0.00 0.00 0.00 83 997.9
20260504231407 22 191 8.0 11.3 0.00 0.00 0.00 82 998.0
20260504230642 22 170 8.0 11.3 0.00 0.00 0.00 83 998.0
20260504230400 22 205 9.7 11.3 0.00 0.00 0.00 81 998.2
20260504225642 22 185 6.4 9.7 0.00 0.00 0.00 81 997.7
20260504225141 21 181 6.4 9.7 0.00 0.00 0.00 84 998.0
20260504224636 21 170 8.0 9.7 0.00 0.00 0.00 84 998.1
20260504224134 20 167 8.0 9.7 0.00 0.00 0.00 86 998.1
20260504223629 20 174 6.4 9.7 0.00 0.00 0.00 85 998.3
20260504223125 20 169 9.7 9.7 0.00 0.00 0.00 85 998.1
20260504222620 19 180 6.4 9.7 0.00 0.00 0.00 92 998.2
20260504222116 18 167 8.0 9.7 0.00 0.00 0.00 94 998.1
20260504221610 18 165 8.0 9.7 0.00 0.00 0.00 96 998.1
20260504221333 17 164 8.0 9.7 0.00 0.00 0.00 97 998.1
20260504220603 17 170 8.0 9.7 0.00 0.00 0.00 97 998.1
20260504220100 17 174 8.0 9.7 0.00 0.00 0.00 98 998.0
20260504215545 17 176 8.0 9.7 0.00 0.00 0.00 98 997.9
20260504215044 17 176 6.4 11.3 0.00 0.00 0.00 98 998.0
20260504214759 17 189 8.0 11.3 0.00 0.00 0.00 98 998.0
20260504214022 17 180 6.4 11.3 0.00 0.00 0.00 98 997.9
20260504213518 16 193 8.0 9.7 0.00 0.00 0.00 98 998.0
20260504213010 16 185 8.0 9.7 0.00 0.00 0.00 98 997.9
20260504212510 16 190 9.7 9.7 0.00 0.00 0.00 98 997.7
20260504211946 16 199 9.7 9.7 0.00 0.00 0.00 98 997.6
20260504211432 16 180 8.0 9.7 0.00 0.00 0.00 98 997.9
20260504210927 16 178 6.4 9.7 0.00 0.00 0.00 99 997.9
20260504210413 16 180 8.0 9.7 0.00 0.00 0.00 98 997.6
20260504210136 16 169 8.0 9.7 0.00 0.00 0.00 98 997.7
20260504205405 16 172 8.0 9.7 0.00 0.00 0.00 99 997.6
20260504204831 16 180 6.4 9.7 0.00 0.00 0.00 99 997.6
20260504204326 15 177 8.0 9.7 0.00 0.00 0.00 99 997.5
20260504203811 15 176 8.0 9.7 0.00 0.00 0.00 99 997.6
20260504203308 15 182 8.0 9.7 0.00 0.00 0.00 99 997.4
20260504202804 15 177 6.4 9.7 0.00 0.00 0.00 99 997.5
20260504202249 15 179 8.0 8.0 0.00 0.00 0.00 99 997.2
20260504201745 15 184 6.4 8.0 0.00 0.00 0.00 99 997.4
20260504201231 15 177 6.4 8.0 0.00 0.00 0.00 98 997.1
20260504200726 15 179 8.0 8.0 0.00 0.00 0.00 98 997.2
20260504200222 15 180 6.4 9.7 0.00 0.00 0.00 99 997.2
20260504195720 15 172 8.0 9.7 0.00 0.00 0.00 98 997.3
20260504195214 16 184 8.0 9.7 0.00 0.00 0.00 98 997.2
20260504194707 16 176 8.0 9.7 0.00 0.00 0.00 99 997.1
20260504194207 16 178 8.0 9.7 0.00 0.00 0.00 98 997.0
20260504193901 16 173 8.0 9.7 0.00 0.00 0.00 99 997.1
20260504193137 16 178 8.0 9.7 0.00 0.00 0.00 99 997.2
20260504192637 16 174 8.0 9.7 0.00 0.00 0.00 98 997.1
20260504192359 16 175 8.0 9.7 0.00 0.00 0.00 99 996.9
20260504191615 16 173 8.0 9.7 0.00 0.00 0.00 98 997.0
20260504191106 16 168 8.0 9.7 0.00 0.00 0.00 98 997.2
20260504190547 16 168 8.0 9.7 0.00 0.00 0.00 98 997.1
20260504190042 16 176 8.0 9.7 0.00 0.00 0.00 98 997.0
20260504185539 16 171 8.0 9.7 0.00 0.00 0.00 98 996.9
20260504185036 16 170 8.0 9.7 0.00 0.03 0.00 98 996.7
20260504184521 16 175 8.0 9.7 0.00 0.10 0.00 98 996.6
20260504184005 16 179 6.4 9.7 0.00 0.13 0.00 98 996.7
20260504183452 16 173 8.0 9.7 0.00 0.18 0.00 98 996.8
20260504183202 16 172 8.0 9.7 0.00 0.23 0.00 98 996.7
20260504182912 16 167 8.0 9.7 0.00 0.25 0.00 98 996.6
20260504181929 16 180 8.0 8.0 0.00 0.25 0.00 98 996.4
20260504181426 16 178 6.4 9.7 0.00 0.25 0.00 98 996.4
20260504180912 16 172 8.0 9.7 0.00 0.25 0.00 98 996.5
20260504180356 16 167 8.0 9.7 0.00 0.25 0.00 98 996.3
20260504175831 16 169 8.0 9.7 0.00 0.25 0.00 98 996.5
20260504175805 16 176 6.4 9.7 0.00 0.25 0.00 98 996.6
20260504174825 16 171 8.0 9.7 0.00 0.25 0.00 98 996.2
20260504174320 16 180 8.0 9.7 0.00 0.25 0.00 98 996.4
20260504173756 16 181 8.0 9.7 0.00 0.25 0.00 98 996.3
20260504173510 16 171 8.0 9.7 0.00 0.25 0.00 98 996.3
20260504172747 16 174 8.0 9.7 0.00 0.25 0.00 98 996.3
20260504172232 16 177 8.0 9.7 0.00 0.25 0.00 98 996.3
20260504171740 16 194 8.0 9.7 0.00 0.25 0.00 98 996.2
20260504171650 16 182 8.0 9.7 0.00 0.25 0.00 98 996.4
20260504170710 16 200 9.7 9.7 0.00 0.25 0.00 98 996.3
20260504170428 16 191 8.0 9.7 0.00 0.25 0.00 98 996.4
20260504150831 17 174 6.4 9.7 0.00 0.51 0.00 98 997.3
20260504150326 17 175 8.0 9.7 0.00 0.51 0.00 97 997.3
20260504141204 17 180 6.4 9.7 0.00 0.53 0.00 97 997.7
20260504140700 17 179 6.4 9.7 0.00 0.53 0.00 97 997.7
20260504140157 17 182 8.0 8.0 0.00 0.53 0.00 97 997.8
20260504130458 18 174 6.4 8.0 0.00 0.58 0.53 97 997.8